Fremont, MI

6:21 AM EDT on August 26, 2019 (GMT -0400)
Fremont

Weather History for KFFX - July, 2019

Change the Weather History Date:

Sunday, July 21, 2019

  Actual Average (WUND) Record (WUND)
Temperature  
Mean Temperature 74 °F -  
Max Temperature 83 °F - - (-1)
Min Temperature 66 °F - - (-1)
Cooling Degree Days 10    
Growing Degree Days 24 (Base 50)    
Moisture  
Dew Point 59 °F    
Average Humidity 66    
Maximum Humidity 100    
Minimum Humidity 28    
Precipitation  
Precipitation 0.00 in - - ()
Sea Level Pressure  
Sea Level Pressure 29.96 in    
Wind  
Wind Speed 3 mph (NNE)    
Max Wind Speed 12 mph    
Max Gust Speed 16 mph    
Visibility 10 miles    
Events      
Averages and records for this station are not official NWS values.
T = Trace of Precipitation, MM = Missing Value Source: NWS Daily Summary

Daily Weather History Graph

Daily Weather History Graph

Search for Another Location

Airport or City:

Astronomy

Jul. 21, 2019 Rise Set
Actual Time 6:22 AM EDT 9:17 PM EDT
Civil Twilight 5:48 AM EDT 9:51 PM EDT
Nautical Twilight 5:05 AM EDT 10:34 PM EDT
Astronomical Twilight 4:14 AM EDT 11:24 PM EDT
Moon No Moon Rise 10:48 AM EDT (7/21)
Length of Visible Light 16h 03m
Length of Day
14h 55m
Waning Gibbous, 80% of the Moon is Illuminated
Jul 21
Waning Gibbous
Jul 24
Last Quarter
Jul 31
New
Aug 7
First Quarter
Aug 15
Full

Hourly Weather History & Observations

Time (EDT) Temp. Heat Index Dew Point Humidity Pressure Visibility Wind Dir Wind Speed Gust Speed Precip Events Conditions
12:15 AM 68.5 °F - 68.2 °F 99% 29.92 in 10.0 mi Calm Calm - N/A   Overcast
12:20 AM 68.4 °F - 68.0 °F 99% 29.92 in 10.0 mi NNW 3.5 mph - N/A   Overcast
12:38 AM 68.0 °F - 68.0 °F 100% 29.91 in 10.0 mi Calm Calm - N/A   Overcast
12:56 AM 68.0 °F - 68.0 °F 100% 29.91 in 10.0 mi Calm Calm - N/A   Overcast
1:15 AM 67.3 °F - 67.3 °F 100% 29.92 in 10.0 mi Calm Calm - N/A   Overcast
1:35 AM 67.1 °F - 67.1 °F 100% 29.92 in 10.0 mi Calm Calm - N/A   Overcast
1:36 AM 67.3 °F - 67.3 °F 100% 29.92 in 10.0 mi Calm Calm - N/A   Overcast
1:59 AM 67.1 °F - 67.1 °F 100% 29.92 in 10.0 mi Calm Calm - N/A   Overcast
2:17 AM 67.3 °F - 67.3 °F 100% 29.92 in 10.0 mi Calm Calm - N/A   Overcast
2:35 AM 67.3 °F - 67.3 °F 100% 29.92 in 10.0 mi Calm Calm - N/A   Overcast
2:55 AM 67.1 °F - 67.1 °F 100% 29.92 in 7.0 mi Calm Calm - N/A   Overcast
2:56 AM 67.1 °F - 67.1 °F 100% 29.92 in 7.0 mi Calm Calm - N/A   Overcast
3:15 AM 67.5 °F - 67.5 °F 100% 29.92 in 7.0 mi Calm Calm - N/A   Overcast
3:20 AM 67.5 °F - 67.5 °F 100% 29.92 in 7.0 mi Calm Calm - N/A   Overcast
3:38 AM 67.6 °F - 67.6 °F 100% 29.92 in 10.0 mi Calm Calm - N/A   Overcast
3:56 AM 67.6 °F - 67.6 °F 100% 29.93 in 10.0 mi Calm Calm - N/A   Overcast
4:15 AM 67.5 °F - 67.5 °F 100% 29.92 in 10.0 mi NNE 3.5 mph - N/A   Scattered Clouds
4:35 AM 67.5 °F - 67.5 °F 100% 29.93 in 10.0 mi Calm Calm - N/A   Scattered Clouds
4:36 AM 67.5 °F - 67.5 °F 100% 29.93 in 10.0 mi Calm Calm - N/A   Mostly Cloudy
4:59 AM 67.3 °F - 67.3 °F 100% 29.93 in 10.0 mi Calm Calm - N/A   Scattered Clouds
5:17 AM 67.3 °F - 67.3 °F 100% 29.93 in 10.0 mi Calm Calm - N/A   Clear
5:35 AM 67.3 °F - 67.3 °F 100% 29.94 in 10.0 mi Calm Calm - N/A   Scattered Clouds
5:55 AM 67.1 °F - 67.1 °F 100% 29.94 in 10.0 mi Calm Calm - N/A   Scattered Clouds
5:56 AM 67.1 °F - 67.1 °F 100% 29.95 in 10.0 mi Calm Calm - N/A   Scattered Clouds
6:15 AM 66.9 °F - 66.9 °F 100% 29.95 in 7.0 mi North 3.5 mph - N/A   Scattered Clouds
6:20 AM 67.1 °F - 67.1 °F 100% 29.95 in 10.0 mi Calm Calm - N/A   Scattered Clouds
6:38 AM 67.1 °F - 67.1 °F 100% 29.95 in 10.0 mi North 3.5 mph - N/A   Mostly Cloudy
6:56 AM 67.1 °F - 67.1 °F 100% 29.96 in 7.0 mi North 4.6 mph - N/A   Mostly Cloudy
7:15 AM 67.1 °F - 67.1 °F 100% 29.97 in 10.0 mi North 4.6 mph - N/A   Scattered Clouds
7:35 AM 67.5 °F - 67.5 °F 100% 29.97 in 10.0 mi North 3.5 mph - N/A   Clear
7:59 AM 68.5 °F - 68.2 °F 99% 29.98 in 10.0 mi Calm Calm - N/A   Mostly Cloudy
8:17 AM 69.1 °F - 68.0 °F 96% 29.98 in 10.0 mi Calm Calm - N/A   Mostly Cloudy
8:35 AM 69.6 °F - 69.1 °F 98% 29.98 in 10.0 mi North 4.6 mph - N/A   Scattered Clouds
8:55 AM 70.7 °F - 67.6 °F 90% 29.97 in 10.0 mi North 3.5 mph - N/A   Clear
9:15 AM 71.8 °F - 63.3 °F 75% 29.97 in 10.0 mi NE 3.5 mph - N/A   Clear
9:38 AM 73.6 °F - 62.2 °F 68% 29.98 in 10.0 mi North 4.6 mph - N/A   Clear
9:56 AM 74.8 °F - 60.6 °F 61% 29.98 in 10.0 mi NE 3.5 mph - N/A   Clear
10:15 AM 75.7 °F - 60.6 °F 59% 29.96 in 10.0 mi NNE 6.9 mph - N/A   Clear
10:16 AM 75.7 °F - 60.6 °F 59% 29.96 in 10.0 mi NNE 5.8 mph - N/A   Clear
10:35 AM 76.6 °F - 55.8 °F 48% 29.95 in 10.0 mi NE 6.9 mph - N/A   Clear
10:36 AM 76.6 °F - 55.8 °F 48% 29.95 in 10.0 mi NE 6.9 mph - N/A   Clear
10:59 AM 78.3 °F - 52.2 °F 40% 29.95 in 10.0 mi NE 6.9 mph - N/A   Clear
11:17 AM 78.8 °F - 48.7 °F 35% 29.96 in 10.0 mi ENE 8.1 mph - N/A   Clear
11:35 AM 79.7 °F - 46.8 °F 31% 29.96 in 10.0 mi ENE 8.1 mph - N/A   Clear
11:55 AM 80.1 °F - 45.1 °F 29% 29.97 in 10.0 mi NE 9.2 mph - N/A   Clear
11:56 AM 79.9 °F - 45.3 °F 29% 29.97 in 10.0 mi NE 6.9 mph - N/A   Clear
12:15 PM 80.6 °F - 49.3 °F 33% 29.97 in 10.0 mi NNE 6.9 mph - N/A   Scattered Clouds
12:38 PM 80.1 °F - 46.4 °F 31% 29.98 in 10.0 mi East 3.5 mph - N/A   Overcast
12:56 PM 80.6 °F - 48.9 °F 33% 29.99 in 10.0 mi East 6.9 mph - N/A   Overcast
1:15 PM 81.1 °F - 49.1 °F 33% 29.98 in 10.0 mi ENE 8.1 mph - N/A   Mostly Cloudy
1:16 PM 81.3 °F - 49.5 °F 33% 29.98 in 10.0 mi East 8.1 mph - N/A   Scattered Clouds
1:35 PM 82.0 °F - 49.5 °F 32% 29.98 in 10.0 mi NE 6.9 mph - N/A   Clear
2:17 PM 81.9 °F - 49.6 °F 32% 29.98 in 10.0 mi East 4.6 mph - N/A   Clear
2:35 PM 81.9 °F - 51.1 °F 34% 29.98 in 10.0 mi NE 5.8 mph - N/A   Clear
2:55 PM 82.9 °F - 46.6 °F 28% 29.97 in 10.0 mi NNE 8.1 mph - N/A   Clear
3:15 PM 83.3 °F - 47.8 °F 29% 29.96 in 10.0 mi North 6.9 mph - N/A   Clear
3:20 PM 83.7 °F - 48.6 °F 29% 29.96 in 10.0 mi NNE 5.8 mph - N/A   Clear
3:38 PM 83.7 °F - 50.5 °F 32% 29.96 in 10.0 mi North 8.1 mph - N/A   Clear
3:56 PM 83.3 °F - 51.4 °F 33% 29.95 in 10.0 mi North 9.2 mph - N/A   Clear
4:15 PM 82.9 °F - 50.5 °F 32% 29.95 in 10.0 mi North 10.4 mph 16.1 mph N/A   Scattered Clouds
4:35 PM 81.3 °F - 50.9 °F 35% 29.95 in 10.0 mi North 8.1 mph - N/A   Scattered Clouds
4:36 PM 81.1 °F - 51.3 °F 35% 29.95 in 10.0 mi North 9.2 mph - N/A   Scattered Clouds
4:59 PM 81.1 °F 80.6 °F 53.2 °F 38% 29.96 in 10.0 mi North 6.9 mph - N/A   Clear
5:17 PM 81.1 °F - 52.2 °F 36% 29.95 in 10.0 mi North 6.9 mph - N/A   Clear
5:35 PM 82.9 °F - 52.9 °F 35% 29.95 in 10.0 mi North 6.9 mph - N/A   Clear
5:55 PM 82.4 °F 81.6 °F 54.5 °F 38% 29.96 in 10.0 mi North 6.9 mph - N/A   Clear
5:56 PM 82.4 °F 81.6 °F 54.5 °F 38% 29.96 in 10.0 mi North 6.9 mph - N/A   Clear
6:15 PM 81.1 °F - 52.3 °F 37% 29.96 in 10.0 mi NNW 11.5 mph - N/A   Clear
6:20 PM 81.1 °F - 52.3 °F 37% 29.96 in 10.0 mi NNW 9.2 mph - N/A   Clear
6:38 PM 81.1 °F - 51.4 °F 36% 29.96 in 10.0 mi North 9.2 mph - N/A   Clear
6:56 PM 80.6 °F - 52.2 °F 37% 29.96 in 10.0 mi North 9.2 mph - N/A   Clear
7:15 PM 79.7 °F - 52.0 °F 38% 29.96 in 10.0 mi North 10.4 mph - N/A   Clear
7:35 PM 78.8 °F - 53.4 °F 41% 29.95 in 10.0 mi North 9.2 mph - N/A   Clear
7:59 PM 77.5 °F - 55.9 °F 47% 29.96 in 10.0 mi North 9.2 mph - N/A   Clear
8:17 PM 75.9 °F - 57.7 °F 53% 29.97 in 10.0 mi NNW 9.2 mph - N/A   Clear
8:35 PM 73.6 °F - 57.0 °F 56% 29.97 in 10.0 mi NNW 6.9 mph - N/A   Clear
8:36 PM 73.6 °F - 57.2 °F 56% 29.97 in 10.0 mi NNW 6.9 mph - N/A   Clear
8:55 PM 71.6 °F - 57.0 °F 60% 29.98 in 10.0 mi NNW 5.8 mph - N/A   Clear
9:15 PM 69.4 °F - 57.6 °F 66% 29.98 in 10.0 mi NNW 5.8 mph - N/A   Clear
9:38 PM 68.2 °F - 58.1 °F 70% 29.98 in 10.0 mi NNW 4.6 mph - N/A   Clear
9:56 PM 67.3 °F - 58.8 °F 74% 29.99 in 10.0 mi North 5.8 mph - N/A   Clear
10:15 PM 68.0 °F - 57.9 °F 70% 29.99 in 10.0 mi North 5.8 mph - N/A   Clear
10:35 PM 68.4 °F - 56.5 °F 66% 29.99 in 10.0 mi North 5.8 mph - N/A   Clear
10:59 PM 68.0 °F - 55.2 °F 64% 29.99 in 10.0 mi North 5.8 mph - N/A   Clear
11:17 PM 68.2 °F - 55.0 °F 63% 29.99 in 10.0 mi NNE 5.8 mph - N/A   Clear
11:35 PM 68.0 °F - 55.0 °F 63% 29.98 in 10.0 mi NNE 8.1 mph - N/A   Clear
11:36 PM 68.0 °F - 55.0 °F 63% 29.98 in 10.0 mi NNE 8.1 mph - N/A   Clear
11:55 PM 67.1 °F - 55.4 °F 66% 29.98 in 10.0 mi NNE 5.8 mph - N/A   Clear